N19PA KMEM-KIND

Flight info

Callsign N19PA
Flight time N/A
Altitude 15000
Route CRSON7 HUMMS PXV EMBRR SMUKE3
Aircraft TBM9/L-SDFGRWY/C

Departure

Time 2026-05-06 00:16
Airport Memphis International Airport (KMEM)

Arrival

Time N/A
Airport Indianapolis International Airport (KIND)
Time Latitude Longitude Altitude Speed Heading
2026-05-05 23:45 35.05311 -89.95848 284 ft 0 kts 181°
2026-05-06 00:00 35.05313 -89.95848 284 ft 2 kts 181°
2026-05-06 00:00 35.05327 -89.95847 284 ft 2 kts 181°
2026-05-06 00:00 35.05341 -89.95847 282 ft 2 kts 181°
2026-05-06 00:00 35.05355 -89.95846 285 ft 2 kts 181°
2026-05-06 00:01 35.05368 -89.95846 285 ft 1 kts 178°
2026-05-06 00:01 35.05382 -89.95845 286 ft 2 kts 181°
2026-05-06 00:01 35.05396 -89.95845 287 ft 2 kts 181°
2026-05-06 00:01 35.05409 -89.95844 287 ft 2 kts 181°
2026-05-06 00:02 35.05423 -89.95844 288 ft 2 kts 181°
2026-05-06 00:02 35.05436 -89.95840 289 ft 2 kts 235°
2026-05-06 00:02 35.05436 -89.95839 289 ft 0 kts 237°
2026-05-06 00:02 35.05433 -89.95848 288 ft 3 kts 247°
2026-05-06 00:03 35.05425 -89.95896 287 ft 9 kts 271°
2026-05-06 00:03 35.05427 -89.95986 286 ft 12 kts 273°
2026-05-06 00:03 35.05458 -89.96073 285 ft 11 kts 312°
2026-05-06 00:03 35.05507 -89.96135 286 ft 9 kts 297°
2026-05-06 00:04 35.05517 -89.96202 285 ft 8 kts 277°
2026-05-06 00:04 35.05526 -89.96268 284 ft 8 kts 279°
2026-05-06 00:04 35.05535 -89.96332 284 ft 7 kts 281°
2026-05-06 00:04 35.05556 -89.96379 284 ft 6 kts 324°
2026-05-06 00:05 35.05570 -89.96388 284 ft 0 kts 333°
2026-05-06 00:06 35.05575 -89.96389 284 ft 5 kts
2026-05-06 00:06 35.05638 -89.96443 283 ft 17 kts 264°
2026-05-06 00:07 35.05643 -89.96584 280 ft 17 kts 270°
2026-05-06 00:07 35.05646 -89.96735 276 ft 18 kts 272°
2026-05-06 00:07 35.05652 -89.96895 273 ft 19 kts 268°
2026-05-06 00:07 35.05559 -89.96965 274 ft 16 kts 188°
2026-05-06 00:08 35.05454 -89.96985 276 ft 14 kts 188°
2026-05-06 00:08 35.05368 -89.97002 280 ft 11 kts 188°
2026-05-06 00:08 35.05281 -89.97017 274 ft 19 kts 191°
2026-05-06 00:08 35.05156 -89.97042 283 ft 19 kts 191°
2026-05-06 00:09 35.05001 -89.97066 283 ft 25 kts 176°
2026-05-06 00:09 35.04889 -89.97086 286 ft 7 kts 224°
2026-05-06 00:09 35.04885 -89.97092 286 ft 0 kts 234°
2026-05-06 00:10 35.04876 -89.97111 286 ft 8 kts 254°
2026-05-06 00:10 35.04874 -89.97165 286 ft 0 kts 264°
2026-05-06 00:15 35.04855 -89.97274 284 ft 21 kts 222°
2026-05-06 00:15 35.04703 -89.97293 286 ft 35 kts 177°
2026-05-06 00:15 35.04263 -89.97288 298 ft 90 kts 179°
2026-05-06 00:15 35.03504 -89.97275 393 ft 129 kts 179°
2026-05-06 00:16 35.02540 -89.97248 753 ft 144 kts 176°
2026-05-06 00:16 35.01743 -89.96675 1569 ft 132 kts 141°
2026-05-06 00:16 35.01241 -89.95809 2275 ft 119 kts 140°
2026-05-06 00:16 35.00820 -89.94978 2818 ft 113 kts 139°
2026-05-06 00:17 35.00339 -89.94076 2946 ft 145 kts 139°
2026-05-06 00:17 34.99665 -89.92965 2963 ft 178 kts 139°
2026-05-06 00:17 34.98844 -89.91703 2962 ft 201 kts 139°
2026-05-06 00:17 34.97922 -89.90331 2958 ft 215 kts 139°
2026-05-06 00:18 34.97001 -89.88964 3485 ft 197 kts 139°
2026-05-06 00:18 34.96201 -89.87742 4314 ft 171 kts 139°
2026-05-06 00:18 34.95526 -89.86679 5139 ft 147 kts 139°
2026-05-06 00:18 34.94948 -89.85735 5800 ft 132 kts 140°
2026-05-06 00:19 34.94437 -89.84850 6317 ft 125 kts 139°
2026-05-06 00:19 34.93933 -89.83964 6659 ft 130 kts 139°
2026-05-06 00:19 34.93406 -89.83052 7027 ft 132 kts 139°
2026-05-06 00:19 34.92873 -89.82126 7395 ft 135 kts 139°
2026-05-06 00:20 34.92329 -89.81188 7769 ft 137 kts 139°
2026-05-06 00:20 34.91773 -89.80236 8126 ft 139 kts 139°
2026-05-06 00:20 34.91206 -89.79268 8486 ft 141 kts 139°
2026-05-06 00:20 34.90639 -89.78301 8862 ft 143 kts 139°
2026-05-06 00:21 34.90045 -89.77298 9144 ft 154 kts 139°
2026-05-06 00:21 34.89348 -89.76183 9341 ft 173 kts 139°
2026-05-06 00:21 34.88605 -89.75017 9766 ft 175 kts 139°
2026-05-06 00:21 34.87846 -89.73840 10139 ft 179 kts 139°
2026-05-06 00:22 34.87069 -89.72637 10506 ft 182 kts 139°
2026-05-06 00:22 34.86277 -89.71413 10897 ft 185 kts 140°
2026-05-06 00:22 34.85629 -89.70018 11255 ft 200 kts 105°
2026-05-06 00:22 34.85803 -89.68372 11641 ft 193 kts 50°
2026-05-06 00:23 34.86692 -89.67339 12043 ft 166 kts
2026-05-06 00:23 34.87716 -89.67016 12470 ft 146 kts 346°
2026-05-06 00:23 34.88729 -89.66833 12920 ft 148 kts 347°
2026-05-06 00:23 34.89743 -89.66631 13375 ft 147 kts 346°
2026-05-06 00:24 34.90753 -89.66430 13817 ft 147 kts 346°
2026-05-06 00:24 34.91768 -89.66229 14196 ft 149 kts 346°
2026-05-06 00:24 34.92795 -89.66023 14574 ft 151 kts 346°
2026-05-06 00:24 34.93837 -89.65813 14930 ft 155 kts 346°
2026-05-06 00:25 34.94995 -89.65606 14964 ft 182 kts 349°
2026-05-06 00:25 34.96331 -89.65344 14969 ft 206 kts 352°
2026-05-06 00:25 34.97810 -89.65032 14965 ft 225 kts 353°
2026-05-06 00:25 34.99413 -89.64700 14964 ft 242 kts 354°
2026-05-06 00:26 35.01125 -89.64348 14963 ft 255 kts 355°
2026-05-06 00:26 35.02907 -89.63982 14961 ft 264 kts 355°
2026-05-06 00:26 35.04741 -89.63605 14960 ft 270 kts 356°
2026-05-06 00:26 35.06613 -89.63223 14960 ft 274 kts 356°
2026-05-06 00:27 35.08505 -89.62837 14957 ft 277 kts 356°
2026-05-06 00:27 35.10387 -89.62454 14958 ft 278 kts 356°
2026-05-06 00:27 35.12303 -89.62065 14959 ft 280 kts 356°
2026-05-06 00:27 35.14228 -89.61672 14953 ft 280 kts 356°
2026-05-06 00:28 35.16155 -89.61280 14953 ft 281 kts 356°
2026-05-06 00:28 35.18087 -89.60886 14955 ft 281 kts 356°
2026-05-06 00:28 35.20020 -89.60492 14953 ft 282 kts 356°
2026-05-06 00:28 35.21952 -89.60101 14952 ft 282 kts 356°
2026-05-06 00:29 35.23887 -89.59705 14952 ft 282 kts 356°
2026-05-06 00:29 35.25828 -89.59309 14950 ft 283 kts 356°
2026-05-06 00:29 35.27767 -89.58914 14956 ft 283 kts 356°
2026-05-06 00:29 35.29710 -89.58517 14950 ft 283 kts 356°
2026-05-06 00:30 35.31653 -89.58119 14953 ft 283 kts 356°
2026-05-06 00:30 35.33596 -89.57722 14954 ft 283 kts 356°
2026-05-06 00:30 35.35542 -89.57325 14953 ft 284 kts 356°
2026-05-06 00:30 35.37496 -89.56925 14951 ft 284 kts 356°
2026-05-06 00:31 35.39422 -89.56531 14950 ft 284 kts 356°
2026-05-06 00:31 35.41372 -89.56131 14952 ft 284 kts 356°
2026-05-06 00:31 35.43330 -89.55730 14950 ft 285 kts 356°
2026-05-06 00:31 35.45285 -89.55330 14946 ft 285 kts 356°
2026-05-06 00:32 35.47242 -89.54929 14945 ft 285 kts 356°
2026-05-06 00:32 35.49198 -89.54527 14945 ft 285 kts 357°
2026-05-06 00:32 35.51157 -89.54125 14941 ft 285 kts 357°
2026-05-06 00:32 35.53113 -89.53723 14945 ft 286 kts 357°
2026-05-06 00:33 35.55078 -89.53320 14946 ft 286 kts 357°
2026-05-06 00:33 35.57040 -89.52916 14945 ft 286 kts 357°
2026-05-06 00:33 35.59004 -89.52512 14948 ft 286 kts 357°
2026-05-06 00:33 35.60950 -89.52112 14947 ft 287 kts 357°
2026-05-06 00:34 35.62919 -89.51707 14945 ft 287 kts 357°
2026-05-06 00:34 35.64890 -89.51185 14943 ft 296 kts
2026-05-06 00:34 35.66817 -89.50168 14946 ft 308 kts 18°
2026-05-06 00:34 35.68664 -89.48787 14949 ft 311 kts 21°
2026-05-06 00:35 35.70515 -89.47410 14950 ft 310 kts 20°
2026-05-06 00:35 35.72366 -89.46048 14948 ft 311 kts 21°
2026-05-06 00:35 35.74224 -89.44664 14950 ft 311 kts 21°
2026-05-06 00:35 35.76073 -89.43280 14945 ft 311 kts 21°
2026-05-06 00:36 35.77925 -89.41900 14947 ft 311 kts 21°
2026-05-06 00:36 35.79779 -89.40519 14947 ft 312 kts 21°
2026-05-06 00:36 35.81634 -89.39136 14946 ft 312 kts 21°
2026-05-06 00:36 35.83490 -89.37748 14947 ft 312 kts 21°
2026-05-06 00:37 35.85348 -89.36359 14943 ft 312 kts 21°
2026-05-06 00:37 35.87203 -89.34974 14946 ft 312 kts 22°
2026-05-06 00:37 35.89061 -89.33584 14942 ft 312 kts 22°
2026-05-06 00:37 35.90895 -89.32211 14944 ft 312 kts 22°
2026-05-06 00:38 35.92772 -89.30804 14972 ft 312 kts 22°
2026-05-06 00:38 35.94607 -89.29430 14972 ft 312 kts 22°
2026-05-06 00:38 35.96464 -89.28039 14976 ft 312 kts 22°
2026-05-06 00:38 35.98321 -89.26647 14975 ft 312 kts 22°
2026-05-06 00:39 36.00176 -89.25253 14977 ft 312 kts 22°
2026-05-06 00:39 36.02033 -89.23859 14977 ft 312 kts 22°
2026-05-06 00:39 36.03890 -89.22464 14978 ft 312 kts 22°
2026-05-06 00:39 36.05744 -89.21070 14979 ft 312 kts 23°
2026-05-06 00:40 36.07597 -89.19676 14976 ft 312 kts 23°
2026-05-06 00:40 36.09451 -89.18281 14981 ft 312 kts 23°
2026-05-06 00:40 36.11307 -89.16884 14979 ft 312 kts 23°
2026-05-06 00:40 36.13163 -89.15486 14980 ft 312 kts 23°
2026-05-06 00:41 36.15019 -89.14085 14981 ft 312 kts 23°
2026-05-06 00:41 36.16878 -89.12683 14980 ft 313 kts 23°
2026-05-06 00:41 36.18732 -89.11284 14979 ft 313 kts 24°
2026-05-06 00:41 36.20590 -89.09882 14976 ft 313 kts 24°
2026-05-06 00:42 36.22446 -89.08479 14979 ft 313 kts 24°
2026-05-06 00:42 36.24306 -89.07072 14975 ft 313 kts 24°
2026-05-06 00:42 36.26161 -89.05669 14977 ft 313 kts 24°
2026-05-06 00:42 36.28020 -89.04262 14976 ft 313 kts 24°
2026-05-06 00:43 36.29876 -89.02857 14973 ft 313 kts 24°
2026-05-06 00:43 36.31734 -89.01450 14973 ft 313 kts 24°
2026-05-06 00:43 36.33589 -89.00043 14976 ft 313 kts 25°
2026-05-06 00:43 36.35448 -88.98633 14976 ft 313 kts 25°
2026-05-06 00:44 36.37307 -88.97222 14975 ft 313 kts 25°
2026-05-06 00:44 36.39165 -88.95811 14976 ft 313 kts 25°
2026-05-06 00:44 36.41023 -88.94399 14975 ft 313 kts 25°
2026-05-06 00:44 36.42882 -88.92986 14972 ft 313 kts 25°
2026-05-06 00:45 36.44722 -88.91587 14974 ft 314 kts 25°
2026-05-06 00:45 36.46586 -88.90168 14975 ft 314 kts 25°
2026-05-06 00:45 36.48497 -88.88712 14973 ft 314 kts 25°
2026-05-06 00:45 36.50361 -88.87293 14977 ft 314 kts 25°
2026-05-06 00:46 36.52224 -88.85872 14977 ft 314 kts 26°
2026-05-06 00:46 36.54091 -88.84448 14975 ft 315 kts 26°
2026-05-06 00:46 36.55956 -88.83025 14977 ft 315 kts 26°
2026-05-06 00:46 36.57821 -88.81600 14977 ft 315 kts 26°
2026-05-06 00:47 36.59685 -88.80176 14978 ft 315 kts 26°
2026-05-06 00:47 36.61557 -88.78744 14978 ft 315 kts 25°
2026-05-06 00:47 36.63430 -88.77311 14975 ft 315 kts 26°
2026-05-06 00:47 36.65275 -88.75899 14982 ft 316 kts 25°
2026-05-06 00:48 36.67153 -88.74461 14983 ft 316 kts 26°
2026-05-06 00:48 36.69024 -88.73027 14984 ft 316 kts 26°
2026-05-06 00:48 36.70900 -88.71588 14988 ft 316 kts 25°
2026-05-06 00:48 36.72775 -88.70149 14987 ft 317 kts 25°
2026-05-06 00:49 36.74653 -88.68707 14989 ft 317 kts 25°
2026-05-06 00:49 36.76539 -88.67259 14988 ft 317 kts 25°
2026-05-06 00:49 36.78418 -88.65814 14990 ft 317 kts 25°
2026-05-06 00:49 36.80299 -88.64368 14987 ft 317 kts 25°
2026-05-06 00:50 36.82176 -88.62923 14987 ft 317 kts 25°
2026-05-06 00:50 36.84055 -88.61477 14975 ft 317 kts 25°
2026-05-06 00:50 36.85932 -88.60031 14976 ft 317 kts 25°
2026-05-06 00:50 36.87808 -88.58584 14977 ft 317 kts 25°
2026-05-06 00:51 36.89683 -88.57137 14975 ft 317 kts 25°
2026-05-06 00:51 36.91535 -88.55708 14977 ft 316 kts 25°
2026-05-06 00:51 36.93407 -88.54263 14976 ft 317 kts 25°
2026-05-06 00:51 36.95283 -88.52813 14977 ft 317 kts 25°
2026-05-06 00:52 36.97156 -88.51365 14977 ft 317 kts 25°
2026-05-06 00:52 36.99033 -88.49913 14980 ft 317 kts 25°
2026-05-06 00:52 37.00903 -88.48466 14977 ft 317 kts 25°
2026-05-06 00:52 37.02778 -88.47013 14977 ft 317 kts 25°
2026-05-06 00:53 37.04651 -88.45561 14978 ft 317 kts 25°
2026-05-06 00:53 37.06525 -88.44109 14982 ft 317 kts 25°
2026-05-06 00:53 37.08403 -88.42651 14978 ft 317 kts 25°
2026-05-06 00:53 37.10276 -88.41197 14983 ft 317 kts 25°
2026-05-06 00:54 37.12149 -88.39742 14984 ft 317 kts 25°
2026-05-06 00:54 37.14023 -88.38286 14984 ft 317 kts 25°
2026-05-06 00:54 37.15894 -88.36832 14984 ft 317 kts 25°
2026-05-06 00:54 37.17770 -88.35372 14989 ft 317 kts 25°
2026-05-06 00:55 37.19644 -88.33913 14990 ft 317 kts 25°
2026-05-06 00:55 37.21520 -88.32451 14990 ft 317 kts 25°
2026-05-06 00:55 37.22759 -88.31486 14992 ft 317 kts 25°
2026-05-06 00:55 37.25271 -88.29525 14993 ft 317 kts 25°
2026-05-06 00:56 37.26515 -88.28554 14993 ft 318 kts 25°
2026-05-06 00:56 37.28392 -88.27090 14993 ft 318 kts 25°
2026-05-06 00:56 37.30268 -88.25624 14995 ft 318 kts 25°
2026-05-06 00:56 37.32147 -88.24156 14998 ft 318 kts 25°
2026-05-06 00:57 37.34022 -88.22689 14991 ft 318 kts 25°
2026-05-06 00:57 37.35905 -88.21216 14972 ft 319 kts 25°
2026-05-06 00:57 37.37782 -88.19746 14978 ft 318 kts 25°
2026-05-06 00:57 37.39663 -88.18271 14978 ft 318 kts 25°
2026-05-06 00:58 37.41537 -88.16802 14980 ft 318 kts 25°
2026-05-06 00:58 37.43415 -88.15329 14980 ft 318 kts 25°
2026-05-06 00:58 37.45293 -88.13856 14982 ft 318 kts 25°
2026-05-06 00:58 37.47172 -88.12379 14984 ft 318 kts 25°
2026-05-06 00:59 37.49049 -88.10904 14985 ft 318 kts 25°
2026-05-06 00:59 37.50926 -88.09428 14984 ft 318 kts 25°
2026-05-06 00:59 37.52808 -88.07947 14984 ft 319 kts 25°
2026-05-06 00:59 37.54686 -88.06468 14988 ft 319 kts 25°
2026-05-06 01:00 37.56571 -88.04983 14987 ft 319 kts 25°
2026-05-06 01:00 37.58457 -88.03497 14987 ft 320 kts 25°
2026-05-06 01:00 37.60322 -88.02026 14987 ft 320 kts 25°
2026-05-06 01:00 37.62213 -88.00534 14987 ft 320 kts 25°
2026-05-06 01:01 37.64101 -87.99042 14988 ft 320 kts 25°
2026-05-06 01:01 37.65992 -87.97547 14985 ft 321 kts 26°
2026-05-06 01:01 37.67892 -87.96080 14980 ft 317 kts 20°
2026-05-06 01:01 37.69872 -87.94908 14984 ft 321 kts 28°
2026-05-06 01:02 37.71438 -87.92896 15318 ft 312 kts 45°
2026-05-06 01:02 37.72764 -87.90977 16507 ft 271 kts 44°
2026-05-06 01:02 37.74257 -87.89483 16450 ft 282 kts 18°
2026-05-06 01:02 37.76154 -87.88588 16114 ft 301 kts 11°
2026-05-06 01:03 37.78162 -87.87517 15729 ft 325 kts 21°
2026-05-06 01:03 37.80128 -87.85992 15384 ft 337 kts 27°
2026-05-06 01:03 37.82096 -87.84315 15012 ft 343 kts 27°
2026-05-06 01:03 37.84106 -87.82761 14997 ft 333 kts 23°
2026-05-06 01:04 37.86104 -87.81328 14993 ft 328 kts 23°
2026-05-06 01:04 37.88061 -87.79869 14999 ft 325 kts 24°
2026-05-06 01:04 37.89992 -87.78384 14996 ft 323 kts 24°
2026-05-06 01:04 37.91919 -87.76920 15003 ft 322 kts 24°
2026-05-06 01:05 37.93851 -87.75514 15002 ft 319 kts 22°
2026-05-06 01:05 37.95791 -87.74134 15002 ft 320 kts 23°
2026-05-06 01:05 37.97717 -87.72731 14985 ft 319 kts 23°
2026-05-06 01:05 37.99645 -87.71336 14985 ft 319 kts 22°
2026-05-06 01:06 38.01578 -87.69950 14989 ft 319 kts 22°
2026-05-06 01:06 38.03481 -87.68583 14990 ft 319 kts 22°
2026-05-06 01:06 38.05406 -87.67194 14986 ft 319 kts 23°
2026-05-06 01:06 38.07333 -87.65803 14987 ft 318 kts 23°
2026-05-06 01:07 38.09260 -87.64413 14986 ft 318 kts 23°
2026-05-06 01:07 38.11189 -87.63021 14987 ft 318 kts 23°
2026-05-06 01:07 38.13112 -87.61632 14991 ft 318 kts 23°
2026-05-06 01:07 38.15041 -87.60238 14989 ft 318 kts 23°
2026-05-06 01:08 38.16967 -87.58844 14989 ft 318 kts 23°
2026-05-06 01:08 38.18891 -87.57451 14990 ft 318 kts 23°
2026-05-06 01:08 38.20814 -87.56059 14990 ft 318 kts 23°
2026-05-06 01:08 38.22741 -87.54663 14991 ft 318 kts 23°
2026-05-06 01:09 38.24664 -87.53268 14991 ft 318 kts 23°
2026-05-06 01:09 38.26587 -87.51872 14996 ft 318 kts 23°
2026-05-06 01:09 38.28508 -87.50478 14997 ft 318 kts 23°
2026-05-06 01:09 38.30431 -87.49081 14999 ft 318 kts 23°
2026-05-06 01:10 38.32351 -87.47685 15001 ft 318 kts 23°
2026-05-06 01:10 38.34275 -87.46286 14999 ft 318 kts 23°
2026-05-06 01:10 38.36197 -87.44888 15003 ft 318 kts 23°
2026-05-06 01:10 38.38118 -87.43488 15011 ft 318 kts 23°
2026-05-06 01:11 38.40012 -87.42108 15009 ft 318 kts 24°
2026-05-06 01:11 38.41932 -87.40709 15008 ft 318 kts 24°
2026-05-06 01:11 38.43848 -87.39310 15010 ft 318 kts 24°
2026-05-06 01:11 38.45764 -87.37911 15014 ft 318 kts 24°
2026-05-06 01:12 38.47684 -87.36508 15010 ft 317 kts 24°
2026-05-06 01:12 38.49598 -87.35109 15010 ft 317 kts 24°
2026-05-06 01:12 38.51513 -87.33709 15010 ft 317 kts 24°
2026-05-06 01:12 38.53428 -87.32308 15010 ft 317 kts 24°
2026-05-06 01:13 38.55341 -87.30906 15009 ft 317 kts 24°
2026-05-06 01:13 38.57255 -87.29504 15008 ft 317 kts 24°
2026-05-06 01:13 38.59165 -87.28103 15011 ft 317 kts 24°
2026-05-06 01:13 38.61079 -87.26700 15006 ft 317 kts 24°
2026-05-06 01:14 38.64896 -87.23897 15005 ft 316 kts 24°
2026-05-06 01:14 38.66805 -87.22490 15009 ft 316 kts 24°
2026-05-06 01:14 38.68708 -87.21070 15006 ft 317 kts 24°
2026-05-06 01:15 38.70611 -87.19652 15006 ft 317 kts 24°
2026-05-06 01:15 38.72515 -87.18237 15006 ft 317 kts 24°
2026-05-06 01:15 38.74422 -87.16818 15005 ft 317 kts 24°
2026-05-06 01:15 38.76327 -87.15400 15008 ft 316 kts 24°
2026-05-06 01:16 38.78232 -87.13980 15005 ft 317 kts 24°
2026-05-06 01:16 38.80136 -87.12560 15005 ft 317 kts 24°
2026-05-06 01:16 38.82040 -87.11140 15009 ft 317 kts 24°
2026-05-06 01:16 38.83942 -87.09720 15010 ft 316 kts 24°
2026-05-06 01:17 38.85849 -87.08296 15008 ft 316 kts 24°
2026-05-06 01:17 38.87754 -87.06874 15009 ft 317 kts 24°
2026-05-06 01:17 38.89658 -87.05451 15015 ft 317 kts 24°
2026-05-06 01:17 38.91563 -87.04026 15015 ft 317 kts 24°
2026-05-06 01:18 38.93440 -87.02622 15013 ft 317 kts 24°
2026-05-06 01:18 38.95349 -87.01193 14960 ft 319 kts 24°
2026-05-06 01:18 38.97295 -86.99758 14671 ft 327 kts 23°
2026-05-06 01:18 38.99306 -86.98331 14308 ft 333 kts 23°
2026-05-06 01:19 39.01361 -86.96887 13936 ft 337 kts 23°
2026-05-06 01:19 39.03403 -86.95433 13559 ft 329 kts 24°
2026-05-06 01:19 39.05334 -86.93998 13152 ft 313 kts 24°
2026-05-06 01:19 39.07194 -86.92626 12750 ft 304 kts 24°
2026-05-06 01:20 39.09006 -86.91289 12473 ft 295 kts 24°
2026-05-06 01:20 39.10774 -86.89978 12088 ft 293 kts 24°
2026-05-06 01:20 39.12542 -86.88667 11656 ft 293 kts 24°
2026-05-06 01:20 39.14304 -86.87360 11233 ft 292 kts 24°
2026-05-06 01:21 39.16062 -86.86055 10812 ft 291 kts 24°
2026-05-06 01:21 39.17810 -86.84755 10417 ft 289 kts 24°
2026-05-06 01:21 39.19548 -86.83462 10011 ft 288 kts 24°
2026-05-06 01:21 39.21275 -86.82175 9602 ft 286 kts 24°
2026-05-06 01:22 39.22990 -86.80896 9174 ft 282 kts 25°
2026-05-06 01:22 39.24655 -86.79572 8745 ft 281 kts 32°
2026-05-06 01:22 39.26172 -86.78051 8514 ft 272 kts 35°
2026-05-06 01:22 39.27600 -86.76552 8341 ft 266 kts 36°
2026-05-06 01:23 39.29024 -86.75057 8164 ft 262 kts 36°
2026-05-06 01:23 39.30426 -86.73584 7990 ft 259 kts 36°
2026-05-06 01:23 39.31827 -86.72122 7813 ft 258 kts 36°
2026-05-06 01:23 39.33237 -86.70710 7635 ft 256 kts 33°
2026-05-06 01:24 39.34685 -86.69382 7461 ft 254 kts 32°
2026-05-06 01:24 39.36129 -86.68082 7292 ft 252 kts 32°
2026-05-06 01:24 39.37568 -86.66800 7114 ft 250 kts 31°
2026-05-06 01:24 39.39004 -86.65534 6942 ft 249 kts 31°
2026-05-06 01:25 39.40474 -86.64388 6774 ft 246 kts 25°
2026-05-06 01:25 39.41984 -86.63354 6603 ft 244 kts 25°
2026-05-06 01:25 39.43484 -86.62353 6434 ft 242 kts 24°
2026-05-06 01:25 39.45002 -86.61431 6266 ft 241 kts 23°
2026-05-06 01:26 39.46464 -86.60374 6090 ft 241 kts 34°
2026-05-06 01:26 39.47706 -86.58929 5921 ft 240 kts 44°
2026-05-06 01:26 39.48873 -86.57401 5748 ft 237 kts 43°
2026-05-06 01:26 39.50023 -86.55966 5582 ft 221 kts 43°
2026-05-06 01:27 39.51087 -86.54602 5430 ft 211 kts 43°
2026-05-06 01:27 39.52119 -86.53290 5280 ft 206 kts 42°
2026-05-06 01:27 39.53136 -86.52005 5142 ft 203 kts 43°
2026-05-06 01:27 39.54134 -86.50728 5023 ft 199 kts 43°
2026-05-06 01:28 39.55055 -86.49551 4943 ft 182 kts 42°
2026-05-06 01:28 39.55968 -86.48398 4714 ft 180 kts 43°
2026-05-06 01:28 39.56850 -86.47308 4410 ft 176 kts 35°
2026-05-06 01:28 39.57883 -86.46458 3896 ft 171 kts 37°
2026-05-06 01:29 39.58545 -86.45179 3544 ft 183 kts 68°